New York, NY

10:07 AM EDT on April 21, 2018 (GMT -0400)
La Guardia

Weather History for KLGA - August, 2012

Change the Weather History Date:

Friday, August 10, 2012

  Actual Average Record
Temperature  
Mean Temperature 78 °F 77 °F  
Max Temperature 84 °F 85 °F 99 °F (1949)
Min Temperature 72 °F 70 °F 57 °F (1962)
Degree Days  
Heating Degree Days 0 0  
Month to date heating degree days 0 0  
Since 1 June heating degree days 11 16  
Since 1 July heating degree days 0 0  
Cooling Degree Days 13 12  
Month to date cooling degree days 162 124  
Year to date cooling degree days 1027 806  
Since 1 June cooling degree days 904 740  
Growing Degree Days 28 (Base 50)    
Moisture  
Dew Point 73 °F    
Average Humidity 80    
Maximum Humidity 91    
Minimum Humidity 69    
Precipitation  
Precipitation 0.31 in 0.14 in 1.91 in (2006)
Month to date precipitation 1.00 1.46  
Year to date precipitation 21.66 27.59  
Snow  
Snow 0.00 in 0.00 in - ()
Month to date snowfall 0.0 0.0  
Since 1 July snowfall 0.0 0.0  
Snow Depth 0.00 in    
Sea Level Pressure  
Sea Level Pressure 29.81 in    
Wind  
Wind Speed 9 mph (South)    
Max Wind Speed 20 mph    
Max Gust Speed 23 mph    
Visibility 9 miles    
Events Rain    
T = Trace of Precipitation, MM = Missing Value Source: NWS Daily Summary

Daily Weather History Graph

Daily Weather History Graph

Search for Another Location

Airport or City:

Astronomy

Aug. 10, 2012 Rise Set
Actual Time 6:01 AM EDT 7:59 PM EDT
Civil Twilight 5:31 AM EDT 8:29 PM EDT
Nautical Twilight 4:54 AM EDT 9:05 PM EDT
Astronomical Twilight 4:15 AM EDT 9:44 PM EDT
Moon No Moon Rise 2:38 PM EDT (8/10)
Length of Visible Light 14h 58m
Length of Day
13h 58m
Last Quarter, 42% of the Moon is Illuminated
Aug 10
Last Quarter
Aug 17
New
Aug 24
First Quarter
Aug 31
Full
Sep 8
Last Quarter

Hourly Weather History & Observations

Time (EDT) Temp. Heat Index Dew Point Humidity Pressure Visibility Wind Dir Wind Speed Gust Speed Precip Events Conditions
12:51 AM 79.0 °F - 73.9 °F 84% 29.89 in 9.0 mi South 6.9 mph - N/A   Mostly Cloudy
1:51 AM 79.0 °F - 73.9 °F 84% 29.88 in 9.0 mi South 9.2 mph - N/A   Mostly Cloudy
2:51 AM 79.0 °F - 75.0 °F 88% 29.86 in 10.0 mi South 8.1 mph - N/A   Mostly Cloudy
3:51 AM 78.1 °F - 73.9 °F 87% 29.85 in 10.0 mi South 12.7 mph - N/A   Mostly Cloudy
4:47 AM 78.8 °F - 73.4 °F 83% 29.84 in 10.0 mi South 11.5 mph - N/A   Mostly Cloudy
4:51 AM 78.1 °F - 73.9 °F 87% 29.85 in 10.0 mi South 9.2 mph - N/A   Mostly Cloudy
5:47 AM 78.8 °F - 75.2 °F 89% 29.85 in 10.0 mi South 8.1 mph - N/A   Overcast
5:51 AM 78.8 °F - 75.2 °F 89% 29.85 in 10.0 mi South 9.2 mph - N/A   Overcast
6:46 AM 80.6 °F 86.2 °F 75.2 °F 84% 29.85 in 10.0 mi South 12.7 mph 18.4 mph N/A   Overcast
6:51 AM 79.0 °F - 75.0 °F 88% 29.85 in 10.0 mi South 9.2 mph - N/A   Overcast
7:51 AM 79.0 °F - 75.0 °F 88% 29.84 in 10.0 mi South 10.4 mph 16.1 mph N/A   Overcast
8:51 AM 81.0 °F 86.7 °F 75.0 °F 82% 29.84 in 10.0 mi South 8.1 mph 17.3 mph N/A   Overcast
9:51 AM 82.0 °F 87.9 °F 73.9 °F 76% 29.83 in 10.0 mi South 15.0 mph 19.6 mph N/A   Overcast
10:51 AM 82.9 °F 89.4 °F 73.9 °F 74% 29.82 in 10.0 mi South 15.0 mph 20.7 mph N/A   Overcast
11:20 AM 80.6 °F 85.4 °F 73.4 °F 79% 29.82 in 10.0 mi SSE 15.0 mph 23.0 mph N/A   Overcast
11:51 AM 82.0 °F 87.4 °F 73.0 °F 74% 29.81 in 10.0 mi South 10.4 mph 19.6 mph N/A   Overcast
12:42 PM 77.0 °F - 73.4 °F 89% 29.81 in 1.0 mi South 15.0 mph - 0.07 in Rain Heavy Rain
12:51 PM 73.9 °F - 70.0 °F 87% 29.81 in 2.5 mi South 11.5 mph - 0.15 in Rain Heavy Rain
1:17 PM 73.4 °F - 69.8 °F 88% 29.79 in 8.0 mi Variable 4.6 mph - 0.12 in Rain Light Rain
1:51 PM 73.0 °F - 70.0 °F 90% 29.79 in 9.0 mi ENE 8.1 mph - 0.16 in Rain Light Rain
2:51 PM 75.0 °F - 71.1 °F 87% 29.78 in 10.0 mi ESE 4.6 mph - 0.00 in   Mostly Cloudy
3:34 PM 75.2 °F - 69.8 °F 83% 29.76 in 10.0 mi East 5.8 mph - N/A   Mostly Cloudy
3:51 PM 79.0 °F - 70.0 °F 74% 29.75 in 10.0 mi South 5.8 mph - N/A   Mostly Cloudy
4:29 PM 80.6 °F 83.9 °F 69.8 °F 70% 29.75 in 10.0 mi South 8.1 mph - N/A   Mostly Cloudy
4:51 PM 80.1 °F 83.2 °F 70.0 °F 71% 29.76 in 10.0 mi Variable 5.8 mph - N/A   Mostly Cloudy
5:51 PM 81.0 °F 84.1 °F 69.1 °F 67% 29.76 in 10.0 mi SW 8.1 mph - N/A   Mostly Cloudy
6:51 PM 80.1 °F 83.6 °F 71.1 °F 74% 29.76 in 10.0 mi South 8.1 mph - N/A   Mostly Cloudy
7:51 PM 79.0 °F - 72.0 °F 79% 29.78 in 10.0 mi SSE 9.2 mph - N/A   Mostly Cloudy
8:51 PM 79.0 °F - 72.0 °F 79% 29.78 in 10.0 mi South 6.9 mph - N/A   Mostly Cloudy
9:51 PM 79.0 °F - 73.0 °F 82% 29.79 in 10.0 mi South 6.9 mph - N/A   Mostly Cloudy
10:51 PM 79.0 °F - 72.0 °F 79% 29.79 in 10.0 mi SW 8.1 mph - N/A   Scattered Clouds
11:51 PM 79.0 °F - 72.0 °F 79% 29.79 in 10.0 mi SSW 8.1 mph - N/A   Scattered Clouds